STARLINK-30250 (57527 NORAD) Tracking and Keplerian Element Data

This shows tracking and keplerian element data for the satellite.

Feedback or suggestion? Click here.




ElementValue
Catalog57527
NameSTARLINK-30250
Epoch Orbit390
Epoch Day239.16667824
Epoch Year2023
RAAN359.5933
Inclination42.9995
Eccentricity0.0001543
Argument of Perigee262.9241
Mean Anonmoly94.7736
Mean Motion15.54770788
Decay Rate-0.01620877
L11 57527U 23115G 23239.16667824 -.01620877 00000+0 -26395-1 0 9995
L22 57527 42.9995 359.5933 0001543 262.9241 94.7736 15.54770788 3902



Live tracking and technical data element details for STARLINK-30250 (NORAD 57527). STARLINK-30250 can be tracked NOW for your location showing map with azimuth and elevation plus other details from your city location.







IsCatalogInMostPopularTable: catalog: 57527, numindb: 5
Update: records affected: 1



GetName: 57527 STARLINK-30250

Hit Count: updated at: Tue, 26 Sep 2023 12:30:12 GMT